| time (UTC) | temp F | wind direction | speed MPH | gust MPH | rain 1hr in | rain 24hr in | rain mn in | humidity % | barometer mb |
| 20260503180847 | 57 | 262 | 5.0 | 14.0 | 0.00 | 0.00 | 0.00 | 39 | 1009.9 |
| 20260503180706 | 56 | 9 | 6.0 | 14.0 | 0.00 | 0.00 | 0.00 | 40 | 1010.0 |
| 20260503180355 | 56 | 301 | 4.0 | 13.0 | 0.00 | 0.00 | 0.00 | 41 | 1009.9 |
| 20260503175849 | 57 | 260 | 2.0 | 17.0 | 0.00 | 0.00 | 0.00 | 40 | 1009.9 |
| 20260503175647 | 57 | 191 | 3.0 | 17.0 | 0.00 | 0.00 | 0.00 | 40 | 1010.0 |
| 20260503175336 | 57 | 273 | 7.0 | 17.0 | 0.00 | 0.00 | 0.00 | 40 | 1010.1 |
| 20260503175132 | 56 | 295 | 4.0 | 15.0 | 0.00 | 0.00 | 0.00 | 41 | 1010.1 |
| 20260503174842 | 56 | 13 | 7.0 | 18.0 | 0.00 | 0.00 | 0.00 | 40 | 1010.2 |
| 20260503174700 | 56 | 311 | 2.0 | 18.0 | 0.00 | 0.00 | 0.00 | 42 | 1010.2 |
| 20260503174405 | 56 | 333 | 7.0 | 18.0 | 0.00 | 0.00 | 0.00 | 41 | 1010.2 |
| 20260503174145 | 56 | 17 | 5.0 | 11.0 | 0.00 | 0.00 | 0.00 | 40 | 1010.3 |
| 20260503173832 | 56 | 316 | 4.0 | 16.0 | 0.00 | 0.00 | 0.00 | 42 | 1010.2 |
| 20260503173634 | 55 | 6 | 3.0 | 16.0 | 0.00 | 0.00 | 0.00 | 45 | 1010.2 |
| 20260503173342 | 55 | 256 | 4.0 | 16.0 | 0.00 | 0.00 | 0.00 | 48 | 1010.2 |
| 20260503173143 | 54 | 14 | 6.0 | 16.0 | 0.00 | 0.00 | 0.00 | 42 | 1010.1 |
| 20260503172910 | 54 | 13 | 6.0 | 16.0 | 0.00 | 0.00 | 0.00 | 45 | 1010.2 |
| 20260503172650 | 54 | 14 | 5.0 | 14.0 | 0.00 | 0.00 | 0.00 | 43 | 1010.3 |
| 20260503172336 | 54 | 346 | 5.0 | 13.0 | 0.00 | 0.00 | 0.00 | 46 | 1010.2 |
| 20260503172139 | 54 | 22 | 6.0 | 13.0 | 0.00 | 0.00 | 0.00 | 44 | 1010.3 |
| 20260503171846 | 53 | 261 | 5.0 | 13.0 | 0.00 | 0.00 | 0.00 | 44 | 1010.3 |
| 20260503171649 | 53 | 346 | 2.0 | 12.0 | 0.00 | 0.00 | 0.00 | 46 | 1010.3 |
| 20260503171334 | 53 | 292 | 4.0 | 15.0 | 0.00 | 0.00 | 0.00 | 45 | 1010.5 |
| 20260503171136 | 53 | 225 | 3.0 | 15.0 | 0.00 | 0.00 | 0.00 | 44 | 1010.5 |
| 20260503170843 | 54 | 1 | 7.0 | 15.0 | 0.00 | 0.00 | 0.00 | 43 | 1010.5 |
| 20260503170701 | 54 | 33 | 9.0 | 15.0 | 0.00 | 0.00 | 0.00 | 42 | 1010.5 |
| 20260503170351 | 54 | 5 | 3.0 | 12.0 | 0.00 | 0.00 | 0.00 | 45 | 1010.5 |
| 20260503170148 | 54 | 346 | 3.0 | 12.0 | 0.00 | 0.00 | 0.00 | 44 | 1010.5 |
| 20260503160144 | 53 | 295 | 3.0 | 14.0 | 0.00 | 0.00 | 0.00 | 45 | 1010.8 |
| 20260503150851 | 51 | 95 | 3.0 | 11.0 | 0.00 | 0.00 | 0.00 | 45 | 1010.8 |
| 20260503150648 | 51 | 279 | 5.0 | 11.0 | 0.00 | 0.00 | 0.00 | 46 | 1010.9 |
| 20260503150357 | 51 | 360 | 3.0 | 12.0 | 0.00 | 0.00 | 0.00 | 45 | 1010.8 |
| 20260503150134 | 51 | 334 | 1.0 | 12.0 | 0.00 | 0.00 | 0.00 | 45 | 1010.9 |
| 20260503140145 | 51 | 332 | 2.0 | 15.0 | 0.00 | 0.00 | 0.00 | 51 | 1010.7 |
| 20260503131349 | 48 | 337 | 4.0 | 15.0 | 0.00 | 0.00 | 0.00 | 57 | 1010.9 |
| 20260503131147 | 48 | 360 | 9.0 | 15.0 | 0.00 | 0.00 | 0.00 | 55 | 1010.9 |
| 20260503130838 | 48 | 356 | 6.0 | 15.0 | 0.00 | 0.00 | 0.00 | 56 | 1010.9 |
| 20260503130636 | 48 | 360 | 6.0 | 15.0 | 0.00 | 0.00 | 0.00 | 55 | 1010.8 |
| 20260503130347 | 48 | 4 | 2.0 | 13.0 | 0.00 | 0.00 | 0.00 | 56 | 1010.9 |
| 20260503130146 | 48 | 360 | 6.0 | 13.0 | 0.00 | 0.00 | 0.00 | 57 | 1010.9 |
| 20260503120150 | 46 | 335 | 3.0 | 20.0 | 0.00 | 0.00 | 0.00 | 62 | 1010.7 |
| 20260503110636 | 43 | 356 | 3.0 | 11.0 | 0.00 | 0.00 | 0.00 | 64 | 1010.4 |
| 20260503110345 | 43 | 356 | 7.0 | 11.0 | 0.00 | 0.00 | 0.00 | 63 | 1010.4 |
| 20260503110147 | 43 | 25 | 6.0 | 13.0 | 0.00 | 0.00 | 0.00 | 64 | 1010.3 |
| 20260503100212 | 43 | 356 | 2.0 | 9.0 | 0.00 | 0.00 | 0.00 | 63 | 1009.8 |
| 20260503090409 | 44 | 4 | 3.0 | 10.0 | 0.00 | 0.00 | 0.00 | 61 | 1009.4 |
| 20260503090212 | 44 | 2 | 5.0 | 13.0 | 0.00 | 0.00 | 0.00 | 60 | 1009.4 |
| 20260503081351 | 45 | 7 | 5.0 | 9.0 | 0.00 | 0.00 | 0.00 | 59 | 1009.4 |
| 20260503081148 | 45 | 346 | 3.0 | 6.0 | 0.00 | 0.00 | 0.00 | 60 | 1009.4 |
| 20260503080836 | 45 | 360 | 3.0 | 6.0 | 0.00 | 0.00 | 0.00 | 59 | 1009.4 |
| 20260503080634 | 45 | 9 | 3.0 | 6.0 | 0.00 | 0.00 | 0.00 | 59 | 1009.4 |
| 20260503080344 | 45 | 2 | 2.0 | 7.0 | 0.00 | 0.00 | 0.00 | 60 | 1009.4 |
| 20260503080142 | 46 | 27 | 2.0 | 10.0 | 0.00 | 0.00 | 0.00 | 59 | 1009.4 |
| 20260503072844 | 46 | 356 | 4.0 | 10.0 | 0.00 | 0.00 | 0.00 | 57 | 1009.2 |
| 20260503072642 | 46 | 17 | 3.0 | 10.0 | 0.00 | 0.00 | 0.00 | 57 | 1009.2 |
| 20260503072333 | 46 | 13 | 3.0 | 13.0 | 0.00 | 0.00 | 0.00 | 57 | 1009.2 |
| 20260503072151 | 46 | 25 | 5.0 | 13.0 | 0.00 | 0.00 | 0.00 | 57 | 1009.1 |
| 20260503071903 | 46 | 360 | 6.0 | 13.0 | 0.00 | 0.00 | 0.00 | 57 | 1009.2 |
| 20260503071701 | 46 | 356 | 7.0 | 13.0 | 0.00 | 0.00 | 0.00 | 57 | 1009.3 |
| 20260503071348 | 46 | 8 | 5.0 | 12.0 | 0.00 | 0.00 | 0.00 | 57 | 1009.2 |
| 20260503071147 | 46 | 37 | 7.0 | 12.0 | 0.00 | 0.00 | 0.00 | 57 | 1009.2 |
| 20260503070838 | 46 | 23 | 3.0 | 10.0 | 0.00 | 0.00 | 0.00 | 57 | 1009.3 |
| 20260503070637 | 46 | 13 | 4.0 | 11.0 | 0.00 | 0.00 | 0.00 | 57 | 1009.3 |
| 20260503070347 | 46 | 351 | 7.0 | 11.0 | 0.00 | 0.00 | 0.00 | 57 | 1009.3 |
| 20260503070205 | 46 | 356 | 5.0 | 11.0 | 0.00 | 0.00 | 0.00 | 57 | 1009.3 |
| 20260503060343 | 48 | 360 | 3.0 | 9.0 | 0.00 | 0.00 | 0.00 | 54 | 1009.5 |
| 20260503060141 | 48 | 356 | 4.0 | 9.0 | 0.00 | 0.00 | 0.00 | 54 | 1009.6 |
| 20260503054845 | 48 | 13 | 3.0 | 11.0 | 0.00 | 0.00 | 0.00 | 53 | 1009.6 |
| 20260503054647 | 48 | 17 | 4.0 | 11.0 | 0.00 | 0.00 | 0.00 | 53 | 1009.7 |
| 20260503054333 | 48 | 356 | 5.0 | 11.0 | 0.00 | 0.00 | 0.00 | 53 | 1009.6 |
| 20260503054134 | 48 | 351 | 4.0 | 11.0 | 0.00 | 0.00 | 0.00 | 53 | 1009.7 |
| 20260503053840 | 48 | 356 | 4.0 | 9.0 | 0.00 | 0.00 | 0.00 | 53 | 1009.6 |
| 20260503053644 | 48 | 351 | 5.0 | 9.0 | 0.00 | 0.00 | 0.00 | 53 | 1009.7 |
| 20260503053350 | 48 | 12 | 3.0 | 9.0 | 0.00 | 0.00 | 0.00 | 53 | 1009.7 |
| 20260503053152 | 48 | 2 | 4.0 | 9.0 | 0.00 | 0.00 | 0.00 | 52 | 1009.7 |
| 20260503052839 | 48 | 12 | 5.0 | 8.0 | 0.00 | 0.00 | 0.00 | 52 | 1009.8 |
| 20260503052641 | 49 | 4 | 3.0 | 6.0 | 0.00 | 0.00 | 0.00 | 53 | 1009.9 |
| 20260503052347 | 49 | 8 | 2.0 | 10.0 | 0.00 | 0.00 | 0.00 | 53 | 1009.9 |
| 20260503052209 | 49 | 8 | 4.0 | 10.0 | 0.00 | 0.00 | 0.00 | 52 | 1009.9 |
| 20260503051834 | 49 | 12 | 3.0 | 10.0 | 0.00 | 0.00 | 0.00 | 52 | 1010.0 |
| 20260503051635 | 49 | 46 | 4.0 | 10.0 | 0.00 | 0.00 | 0.00 | 52 | 1010.0 |
| 20260503051340 | 49 | 351 | 4.0 | 9.0 | 0.00 | 0.00 | 0.00 | 52 | 1010.0 |
| 20260503051139 | 49 | 8 | 4.0 | 9.0 | 0.00 | 0.00 | 0.00 | 51 | 1010.0 |
| 20260503050848 | 49 | 28 | 5.0 | 12.0 | 0.00 | 0.00 | 0.00 | 51 | 1010.0 |
| 20260503050706 | 49 | 8 | 5.0 | 12.0 | 0.00 | 0.00 | 0.00 | 51 | 1009.9 |
| 20260503050338 | 49 | 12 | 4.0 | 12.0 | 0.00 | 0.00 | 0.00 | 51 | 1009.9 |
| 20260503050136 | 49 | 29 | 5.0 | 12.0 | 0.00 | 0.00 | 0.00 | 50 | 1009.9 |
| 20260503045849 | 49 | 10 | 5.0 | 9.0 | 0.00 | 0.00 | 0.00 | 51 | 1009.9 |
| 20260503045646 | 49 | 2 | 2.0 | 8.0 | 0.00 | 0.00 | 0.00 | 51 | 1009.9 |
| 20260503045359 | 49 | 356 | 4.0 | 9.0 | 0.00 | 0.00 | 0.00 | 51 | 1010.0 |
| 20260503045135 | 49 | 360 | 4.0 | 9.0 | 0.00 | 0.00 | 0.00 | 50 | 1010.0 |
| 20260503044847 | 49 | 16 | 3.0 | 12.0 | 0.00 | 0.00 | 0.00 | 51 | 1010.1 |
| 20260503044644 | 49 | 356 | 4.0 | 12.0 | 0.00 | 0.00 | 0.00 | 50 | 1010.1 |
| 20260503044335 | 49 | 3 | 5.0 | 12.0 | 0.00 | 0.00 | 0.00 | 50 | 1010.1 |
| 20260503044134 | 49 | 29 | 4.0 | 10.0 | 0.00 | 0.00 | 0.00 | 50 | 1010.1 |
| 20260503043845 | 49 | 346 | 5.0 | 10.0 | 0.00 | 0.00 | 0.00 | 49 | 1010.2 |
| 20260503043643 | 49 | 351 | 6.0 | 11.0 | 0.00 | 0.00 | 0.00 | 49 | 1010.2 |
| 20260503043409 | 50 | 13 | 4.0 | 11.0 | 0.00 | 0.00 | 0.00 | 50 | 1010.2 |
| 20260503043150 | 50 | 346 | 4.0 | 11.0 | 0.00 | 0.00 | 0.00 | 50 | 1010.2 |
| 20260503042836 | 50 | 16 | 5.0 | 11.0 | 0.00 | 0.00 | 0.00 | 50 | 1010.2 |
| 20260503042641 | 50 | 5 | 3.0 | 9.0 | 0.00 | 0.00 | 0.00 | 51 | 1010.2 |
| 20260503042347 | 50 | 20 | 4.0 | 12.0 | 0.00 | 0.00 | 0.00 | 50 | 1010.1 |
| 20260503042150 | 50 | 29 | 5.0 | 12.0 | 0.00 | 0.00 | 0.00 | 50 | 1010.2 |
| 20260503041835 | 50 | 22 | 4.0 | 12.0 | 0.00 | 0.00 | 0.00 | 49 | 1010.3 |
| 20260503041636 | 50 | 23 | 7.0 | 12.0 | 0.00 | 0.00 | 0.00 | 49 | 1010.3 |
| 20260503041342 | 50 | 2 | 5.0 | 10.0 | 0.00 | 0.00 | 0.00 | 49 | 1010.2 |
| 20260503041206 | 50 | 21 | 6.0 | 15.0 | 0.00 | 0.00 | 0.00 | 49 | 1010.1 |
| 20260503040850 | 50 | 7 | 5.0 | 15.0 | 0.00 | 0.00 | 0.00 | 49 | 1010.1 |
| 20260503040633 | 50 | 356 | 5.0 | 15.0 | 0.00 | 0.00 | 0.00 | 49 | 1010.1 |
| 20260503040340 | 50 | 356 | 4.0 | 8.0 | 0.00 | 0.00 | 0.00 | 49 | 1010.1 |
| 20260503040143 | 50 | 15 | 4.0 | 9.0 | 0.00 | 0.00 | 0.00 | 50 | 1010.1 |
| 20260503035842 | 50 | 11 | 3.0 | 11.0 | 0.00 | 0.00 | 0.00 | 49 | 1010.2 |
| 20260503035640 | 50 | 2 | 3.0 | 11.0 | 0.00 | 0.00 | 0.00 | 49 | 1010.1 |
| 20260503035351 | 50 | 4 | 6.0 | 11.0 | 0.00 | 0.00 | 0.00 | 48 | 1010.1 |
| 20260503035148 | 50 | 15 | 4.0 | 11.0 | 0.00 | 0.00 | 0.00 | 48 | 1010.1 |
| 20260503034837 | 50 | 15 | 5.0 | 12.0 | 0.00 | 0.00 | 0.00 | 48 | 1010.1 |
| 20260503034635 | 50 | 346 | 5.0 | 12.0 | 0.00 | 0.00 | 0.00 | 48 | 1010.1 |
| 20260503034346 | 50 | 346 | 5.0 | 12.0 | 0.00 | 0.00 | 0.00 | 48 | 1010.0 |
| 20260503034144 | 51 | 6 | 3.0 | 14.0 | 0.00 | 0.00 | 0.00 | 48 | 1010.0 |
| 20260503033835 | 51 | 351 | 4.0 | 14.0 | 0.00 | 0.00 | 0.00 | 48 | 1010.1 |
| 20260503033632 | 51 | 8 | 5.0 | 14.0 | 0.00 | 0.00 | 0.00 | 47 | 1010.1 |
| 20260503033344 | 51 | 335 | 7.0 | 14.0 | 0.00 | 0.00 | 0.00 | 48 | 1010.0 |
| 20260503033141 | 51 | 19 | 4.0 | 10.0 | 0.00 | 0.00 | 0.00 | 48 | 1010.0 |
| 20260503032852 | 51 | 24 | 4.0 | 10.0 | 0.00 | 0.00 | 0.00 | 48 | 1010.0 |
| 20260503032651 | 51 | 346 | 5.0 | 10.0 | 0.00 | 0.00 | 0.00 | 47 | 1009.9 |
| 20260503032341 | 51 | 3 | 4.0 | 11.0 | 0.00 | 0.00 | 0.00 | 47 | 1010.0 |
| 20260503032140 | 51 | 20 | 4.0 | 11.0 | 0.00 | 0.00 | 0.00 | 47 | 1010.0 |
| 20260503031851 | 51 | 7 | 5.0 | 11.0 | 0.00 | 0.00 | 0.00 | 47 | 1010.0 |
| 20260503031649 | 51 | 335 | 2.0 | 10.0 | 0.00 | 0.00 | 0.00 | 48 | 1010.0 |
| 20260503031338 | 51 | 1 | 1.0 | 11.0 | 0.00 | 0.00 | 0.00 | 48 | 1010.0 |
| 20260503031156 | 51 | 356 | 4.0 | 11.0 | 0.00 | 0.00 | 0.00 | 47 | 1010.1 |
| 20260503030847 | 51 | 8 | 4.0 | 11.0 | 0.00 | 0.00 | 0.00 | 47 | 1010.1 |
| 20260503030644 | 51 | 12 | 6.0 | 11.0 | 0.00 | 0.00 | 0.00 | 47 | 1010.1 |
| 20260503030334 | 51 | 360 | 3.0 | 10.0 | 0.00 | 0.00 | 0.00 | 47 | 1010.1 |
| 20260503030133 | 51 | 15 | 3.0 | 10.0 | 0.00 | 0.00 | 0.00 | 48 | 1010.1 |
| 20260503025840 | 51 | 31 | 4.0 | 10.0 | 0.00 | 0.00 | 0.00 | 47 | 1010.1 |
| 20260503025643 | 51 | 6 | 2.0 | 6.0 | 0.00 | 0.00 | 0.00 | 47 | 1010.2 |
| 20260503025350 | 51 | 8 | 3.0 | 6.0 | 0.00 | 0.00 | 0.00 | 48 | 1010.1 |
| 20260503025152 | 51 | 356 | 4.0 | 6.0 | 0.00 | 0.00 | 0.00 | 47 | 1010.2 |
| 20260503024840 | 51 | 5 | 3.0 | 6.0 | 0.00 | 0.00 | 0.00 | 48 | 1010.0 |
| 20260503024643 | 51 | 7 | 4.0 | 6.0 | 0.00 | 0.00 | 0.00 | 47 | 1010.0 |
| 20260503024349 | 51 | 4 | 2.0 | 4.0 | 0.00 | 0.00 | 0.00 | 48 | 1010.0 |
| 20260503024151 | 51 | 4 | 2.0 | 4.0 | 0.00 | 0.00 | 0.00 | 47 | 1010.0 |
| 20260503023838 | 52 | 3 | 3.0 | 5.0 | 0.00 | 0.00 | 0.00 | 47 | 1010.0 |
| 20260503023641 | 52 | 360 | 3.0 | 5.0 | 0.00 | 0.00 | 0.00 | 47 | 1010.0 |
| 20260503023347 | 52 | 360 | 2.0 | 5.0 | 0.00 | 0.00 | 0.00 | 47 | 1010.0 |
| 20260503023149 | 52 | 360 | 3.0 | 5.0 | 0.00 | 0.00 | 0.00 | 47 | 1010.0 |
| 20260503022836 | 52 | 6 | 2.0 | 6.0 | 0.00 | 0.00 | 0.00 | 47 | 1010.0 |
| 20260503022636 | 52 | 6 | 3.0 | 6.0 | 0.00 | 0.00 | 0.00 | 47 | 1010.0 |
| 20260503022404 | 52 | 4 | 4.0 | 6.0 | 0.00 | 0.00 | 0.00 | 46 | 1010.0 |
| 20260503022202 | 52 | 6 | 2.0 | 8.0 | 0.00 | 0.00 | 0.00 | 46 | 1010.0 |
| 20260503021833 | 52 | 2 | 3.0 | 8.0 | 0.00 | 0.00 | 0.00 | 46 | 1010.0 |
| 20260503021651 | 52 | 356 | 1.0 | 8.0 | 0.00 | 0.00 | 0.00 | 46 | 1010.1 |
| 20260503021338 | 52 | 360 | 3.0 | 8.0 | 0.00 | 0.00 | 0.00 | 45 | 1010.1 |
| 20260503021136 | 52 | 341 | 2.0 | 8.0 | 0.00 | 0.00 | 0.00 | 46 | 1010.1 |
| 20260503020848 | 52 | 356 | 4.0 | 8.0 | 0.00 | 0.00 | 0.00 | 46 | 1010.1 |
| 20260503020706 | 52 | 6 | 5.0 | 8.0 | 0.00 | 0.00 | 0.00 | 46 | 1010.1 |
| 20260503020335 | 52 | 10 | 4.0 | 8.0 | 0.00 | 0.00 | 0.00 | 46 | 1010.2 |
| 20260503020134 | 52 | 4 | 3.0 | 5.0 | 0.00 | 0.00 | 0.00 | 46 | 1010.2 |
| 20260503015844 | 52 | 335 | 1.0 | 5.0 | 0.00 | 0.00 | 0.00 | 47 | 1010.3 |
| 20260503015703 | 52 | 335 | 2.0 | 5.0 | 0.00 | 0.00 | 0.00 | 47 | 1010.3 |
| 20260503015333 | 52 | 356 | 1.0 | 5.0 | 0.00 | 0.00 | 0.00 | 48 | 1010.3 |
| 20260503015150 | 52 | 356 | 0.0 | 5.0 | 0.00 | 0.00 | 0.00 | 49 | 1010.4 |
| 20260503014842 | 52 | 356 | 1.0 | 5.0 | 0.00 | 0.00 | 0.00 | 47 | 1010.3 |
| 20260503014641 | 52 | 356 | 0.0 | 2.0 | 0.00 | 0.00 | 0.00 | 47 | 1010.3 |
| 20260503014348 | 52 | 356 | 1.0 | 4.0 | 0.00 | 0.00 | 0.00 | 46 | 1010.2 |
| 20260503014149 | 52 | 356 | 1.0 | 4.0 | 0.00 | 0.00 | 0.00 | 46 | 1010.2 |
| 20260503013836 | 53 | 356 | 1.0 | 4.0 | 0.00 | 0.00 | 0.00 | 46 | 1010.2 |
| 20260503013638 | 53 | 356 | 2.0 | 5.0 | 0.00 | 0.00 | 0.00 | 45 | 1010.3 |
| 20260503013346 | 53 | 356 | 1.0 | 5.0 | 0.00 | 0.00 | 0.00 | 46 | 1010.3 |
| 20260503013208 | 53 | 356 | 2.0 | 5.0 | 0.00 | 0.00 | 0.00 | 46 | 1010.2 |
| 20260503012835 | 53 | 351 | 2.0 | 5.0 | 0.00 | 0.00 | 0.00 | 46 | 1010.2 |
| 20260503012638 | 53 | 351 | 2.0 | 5.0 | 0.00 | 0.00 | 0.00 | 45 | 1010.2 |
| 20260503012345 | 53 | 351 | 1.0 | 5.0 | 0.00 | 0.00 | 0.00 | 46 | 1010.2 |
| 20260503012147 | 53 | 351 | 1.0 | 5.0 | 0.00 | 0.00 | 0.00 | 46 | 1010.2 |
| 20260503011834 | 53 | 351 | 1.0 | 5.0 | 0.00 | 0.00 | 0.00 | 45 | 1010.2 |
| 20260503011636 | 53 | 351 | 1.0 | 4.0 | 0.00 | 0.00 | 0.00 | 46 | 1010.2 |
| 20260503011340 | 53 | 351 | 1.0 | 3.0 | 0.00 | 0.00 | 0.00 | 45 | 1010.2 |
| 20260503011140 | 53 | 351 | 0.0 | 3.0 | 0.00 | 0.00 | 0.00 | 45 | 1010.2 |
| 20260503010847 | 53 | 351 | 1.0 | 3.0 | 0.00 | 0.00 | 0.00 | 45 | 1010.2 |
| 20260503010644 | 53 | 351 | 2.0 | 3.0 | 0.00 | 0.00 | 0.00 | 45 | 1010.1 |
| 20260503010335 | 53 | 351 | 1.0 | 3.0 | 0.00 | 0.00 | 0.00 | 45 | 1010.0 |
| 20260503010133 | 53 | 351 | 1.0 | 4.0 | 0.00 | 0.00 | 0.00 | 45 | 1010.0 |
| 20260503005844 | 53 | 351 | 1.0 | 4.0 | 0.00 | 0.00 | 0.00 | 45 | 1010.0 |
| 20260503005642 | 53 | 351 | 2.0 | 5.0 | 0.00 | 0.00 | 0.00 | 44 | 1009.9 |
| 20260503005334 | 53 | 346 | 2.0 | 5.0 | 0.00 | 0.00 | 0.00 | 44 | 1009.8 |
| 20260503005150 | 53 | 346 | 2.0 | 5.0 | 0.00 | 0.00 | 0.00 | 44 | 1009.8 |
| 20260503004840 | 53 | 346 | 2.0 | 5.0 | 0.00 | 0.00 | 0.00 | 44 | 1009.8 |
| 20260503004639 | 53 | 346 | 2.0 | 6.0 | 0.00 | 0.00 | 0.00 | 44 | 1009.7 |
| 20260503004348 | 53 | 342 | 3.0 | 6.0 | 0.00 | 0.00 | 0.00 | 44 | 1009.6 |
| 20260503004146 | 53 | 1 | 3.0 | 6.0 | 0.00 | 0.00 | 0.00 | 44 | 1009.6 |
| 20260503003836 | 53 | 5 | 2.0 | 5.0 | 0.00 | 0.00 | 0.00 | 44 | 1009.6 |
| 20260503003633 | 53 | 356 | 2.0 | 5.0 | 0.00 | 0.00 | 0.00 | 44 | 1009.7 |
| 20260503003344 | 53 | 15 | 2.0 | 5.0 | 0.00 | 0.00 | 0.00 | 45 | 1009.6 |
| 20260503003142 | 53 | 15 | 2.0 | 5.0 | 0.00 | 0.00 | 0.00 | 44 | 1009.7 |
| 20260503002833 | 54 | 6 | 2.0 | 4.0 | 0.00 | 0.00 | 0.00 | 44 | 1009.7 |
| 20260503002651 | 54 | 6 | 2.0 | 4.0 | 0.00 | 0.00 | 0.00 | 44 | 1009.7 |
| 20260503002403 | 54 | 6 | 1.0 | 5.0 | 0.00 | 0.00 | 0.00 | 44 | 1009.7 |
| 20260503002140 | 54 | 6 | 1.0 | 5.0 | 0.00 | 0.00 | 0.00 | 44 | 1009.7 |
| 20260503001907 | 54 | 6 | 1.0 | 6.0 | 0.00 | 0.00 | 0.00 | 44 | 1009.6 |
| 20260503001649 | 54 | 4 | 3.0 | 6.0 | 0.00 | 0.00 | 0.00 | 44 | 1009.6 |
| 20260503001333 | 54 | 7 | 2.0 | 9.0 | 0.00 | 0.00 | 0.00 | 44 | 1009.6 |
| 20260503001136 | 54 | 7 | 3.0 | 9.0 | 0.00 | 0.00 | 0.00 | 44 | 1009.5 |
| 20260503000842 | 54 | 356 | 3.0 | 9.0 | 0.00 | 0.00 | 0.00 | 43 | 1009.5 |
| 20260503000645 | 54 | 4 | 3.0 | 9.0 | 0.00 | 0.00 | 0.00 | 43 | 1009.5 |
| 20260503000415 | 54 | 20 | 3.0 | 6.0 | 0.00 | 0.00 | 0.00 | 44 | 1009.5 |
| 20260503000134 | 54 | 356 | 2.0 | 4.0 | 0.00 | 0.00 | 0.00 | 43 | 1009.6 |
| 20260502235901 | 55 | 356 | 2.0 | 4.0 | 0.00 | 0.00 | 0.00 | 44 | 1009.5 |
| 20260502235641 | 55 | 356 | 1.0 | 4.0 | 0.00 | 0.00 | 0.00 | 43 | 1009.5 |
| 20260502235347 | 55 | 356 | 2.0 | 5.0 | 0.00 | 0.00 | 0.00 | 43 | 1009.5 |
| 20260502235145 | 55 | 356 | 1.0 | 5.0 | 0.00 | 0.00 | 0.00 | 43 | 1009.5 |
| 20260502234837 | 55 | 356 | 2.0 | 6.0 | 0.00 | 0.00 | 0.00 | 43 | 1009.5 |
| 20260502234654 | 55 | 356 | 3.0 | 6.0 | 0.00 | 0.00 | 0.00 | 43 | 1009.5 |
| 20260502234405 | 55 | 356 | 2.0 | 6.0 | 0.00 | 0.00 | 0.00 | 42 | 1009.5 |
| 20260502234142 | 55 | 351 | 2.0 | 8.0 | 0.00 | 0.00 | 0.00 | 43 | 1009.5 |
| 20260502233833 | 55 | 356 | 3.0 | 9.0 | 0.00 | 0.00 | 0.00 | 42 | 1009.5 |
| 20260502233650 | 55 | 8 | 2.0 | 9.0 | 0.00 | 0.00 | 0.00 | 43 | 1009.5 |
| 20260502233341 | 55 | 1 | 2.0 | 9.0 | 0.00 | 0.00 | 0.00 | 43 | 1009.5 |
| 20260502233140 | 55 | 356 | 4.0 | 9.0 | 0.00 | 0.00 | 0.00 | 42 | 1009.4 |
| 20260502232850 | 55 | 4 | 2.0 | 5.0 | 0.00 | 0.00 | 0.00 | 42 | 1009.3 |
| 20260502232648 | 55 | 10 | 3.0 | 5.0 | 0.00 | 0.00 | 0.00 | 42 | 1009.2 |
| 20260502232338 | 55 | 356 | 3.0 | 5.0 | 0.00 | 0.00 | 0.00 | 43 | 1009.2 |
| 20260502232135 | 55 | 346 | 2.0 | 4.0 | 0.00 | 0.00 | 0.00 | 43 | 1009.2 |
| 20260502231847 | 56 | 346 | 1.0 | 4.0 | 0.00 | 0.00 | 0.00 | 43 | 1009.3 |
| 20260502231646 | 56 | 346 | 1.0 | 10.0 | 0.00 | 0.00 | 0.00 | 42 | 1009.3 |
| 20260502231335 | 56 | 346 | 1.0 | 10.0 | 0.00 | 0.00 | 0.00 | 43 | 1009.2 |
| 20260502231152 | 56 | 346 | 2.0 | 10.0 | 0.00 | 0.00 | 0.00 | 42 | 1009.3 |
| 20260502230843 | 56 | 356 | 4.0 | 10.0 | 0.00 | 0.00 | 0.00 | 41 | 1009.3 |
| 20260502230640 | 56 | 337 | 3.0 | 9.0 | 0.00 | 0.00 | 0.00 | 42 | 1009.4 |
| 20260502230351 | 56 | 9 | 3.0 | 9.0 | 0.00 | 0.00 | 0.00 | 42 | 1009.3 |
| 20260502230150 | 56 | 351 | 4.0 | 9.0 | 0.00 | 0.00 | 0.00 | 41 | 1009.2 |
| 20260502225839 | 56 | 287 | 4.0 | 9.0 | 0.00 | 0.00 | 0.00 | 41 | 1009.1 |
| 20260502225637 | 56 | 356 | 3.0 | 8.0 | 0.00 | 0.00 | 0.00 | 40 | 1009.1 |
| 20260502225345 | 57 | 19 | 2.0 | 8.0 | 0.00 | 0.00 | 0.00 | 41 | 1009.0 |
| 20260502225147 | 57 | 351 | 3.0 | 8.0 | 0.00 | 0.00 | 0.00 | 40 | 1009.0 |
| 20260502224834 | 57 | 16 | 3.0 | 8.0 | 0.00 | 0.00 | 0.00 | 41 | 1009.0 |
| 20260502224636 | 57 | 6 | 2.0 | 5.0 | 0.00 | 0.00 | 0.00 | 41 | 1009.0 |
| 20260502224343 | 57 | 3 | 3.0 | 6.0 | 0.00 | 0.00 | 0.00 | 40 | 1009.0 |
| 20260502224144 | 57 | 306 | 2.0 | 8.0 | 0.00 | 0.00 | 0.00 | 40 | 1009.0 |
| 20260502223850 | 58 | 305 | 3.0 | 11.0 | 0.00 | 0.00 | 0.00 | 40 | 1009.0 |
| 20260502223650 | 58 | 248 | 3.0 | 11.0 | 0.00 | 0.00 | 0.00 | 40 | 1009.0 |
| 20260502223338 | 58 | 346 | 4.0 | 11.0 | 0.00 | 0.00 | 0.00 | 39 | 1009.0 |
| 20260502223200 | 58 | 335 | 5.0 | 11.0 | 0.00 | 0.00 | 0.00 | 39 | 1009.0 |
| 20260502222846 | 58 | 21 | 3.0 | 11.0 | 0.00 | 0.00 | 0.00 | 40 | 1009.0 |
| 20260502222647 | 58 | 317 | 4.0 | 9.0 | 0.00 | 0.00 | 0.00 | 40 | 1009.0 |
| 20260502222353 | 58 | 6 | 4.0 | 9.0 | 0.00 | 0.00 | 0.00 | 40 | 1009.0 |
| 20260502222211 | 58 | 360 | 1.0 | 8.0 | 0.00 | 0.00 | 0.00 | 40 | 1008.9 |
| 20260502221900 | 58 | 4 | 3.0 | 8.0 | 0.00 | 0.00 | 0.00 | 40 | 1009.0 |
| 20260502221658 | 58 | 2 | 3.0 | 6.0 | 0.00 | 0.00 | 0.00 | 39 | 1008.9 |
| 20260502221345 | 58 | 351 | 2.0 | 6.0 | 0.00 | 0.00 | 0.00 | 40 | 1008.9 |
| 20260502221142 | 58 | 295 | 1.0 | 9.0 | 0.00 | 0.00 | 0.00 | 40 | 1008.9 |
| 20260502220833 | 58 | 16 | 3.0 | 9.0 | 0.00 | 0.00 | 0.00 | 39 | 1008.9 |
| 20260502220650 | 58 | 356 | 2.0 | 9.0 | 0.00 | 0.00 | 0.00 | 39 | 1008.9 |
| 20260502220340 | 59 | 12 | 3.0 | 8.0 | 0.00 | 0.00 | 0.00 | 40 | 1008.9 |
| 20260502220159 | 59 | 323 | 2.0 | 8.0 | 0.00 | 0.00 | 0.00 | 40 | 1008.9 |
| 20260502215908 | 59 | 14 | 2.0 | 8.0 | 0.00 | 0.00 | 0.00 | 40 | 1008.8 |
| 20260502215646 | 59 | 6 | 2.0 | 8.0 | 0.00 | 0.00 | 0.00 | 40 | 1008.8 |
| 20260502215337 | 59 | 346 | 2.0 | 7.0 | 0.00 | 0.00 | 0.00 | 41 | 1008.9 |
| 20260502215136 | 59 | 23 | 3.0 | 7.0 | 0.00 | 0.00 | 0.00 | 39 | 1008.8 |
| 20260502214841 | 59 | 340 | 1.0 | 5.0 | 0.00 | 0.00 | 0.00 | 40 | 1008.8 |
| 20260502214642 | 59 | 356 | 2.0 | 5.0 | 0.00 | 0.00 | 0.00 | 38 | 1008.8 |
| 20260502214351 | 59 | 293 | 2.0 | 12.0 | 0.00 | 0.00 | 0.00 | 39 | 1008.7 |
| 20260502214153 | 60 | 6 | 2.0 | 12.0 | 0.00 | 0.00 | 0.00 | 39 | 1008.8 |
| 20260502213840 | 60 | 346 | 3.0 | 12.0 | 0.00 | 0.00 | 0.00 | 38 | 1008.7 |
| 20260502213642 | 60 | 2 | 3.0 | 12.0 | 0.00 | 0.00 | 0.00 | 39 | 1008.7 |
| 20260502213348 | 60 | 356 | 2.0 | 6.0 | 0.00 | 0.00 | 0.00 | 40 | 1008.7 |
| 20260502213150 | 60 | 6 | 2.0 | 6.0 | 0.00 | 0.00 | 0.00 | 40 | 1008.7 |
| 20260502212837 | 60 | 6 | 3.0 | 7.0 | 0.00 | 0.00 | 0.00 | 40 | 1008.6 |
| 20260502212639 | 60 | 279 | 2.0 | 6.0 | 0.00 | 0.00 | 0.00 | 39 | 1008.6 |
| 20260502212345 | 60 | 10 | 3.0 | 8.0 | 0.00 | 0.00 | 0.00 | 38 | 1008.6 |
| 20260502212145 | 60 | 21 | 3.0 | 9.0 | 0.00 | 0.00 | 0.00 | 39 | 1008.6 |
| 20260502211851 | 60 | 20 | 2.0 | 9.0 | 0.00 | 0.00 | 0.00 | 41 | 1008.5 |
| 20260502211634 | 60 | 351 | 4.0 | 9.0 | 0.00 | 0.00 | 0.00 | 39 | 1008.6 |
| 20260502211359 | 60 | 12 | 1.0 | 9.0 | 0.00 | 0.00 | 0.00 | 39 | 1008.6 |
| 20260502211135 | 60 | 42 | 2.0 | 10.0 | 0.00 | 0.00 | 0.00 | 39 | 1008.5 |
| 20260502210847 | 60 | 10 | 3.0 | 10.0 | 0.00 | 0.00 | 0.00 | 39 | 1008.5 |
| 20260502210636 | 60 | 24 | 5.0 | 10.0 | 0.00 | 0.00 | 0.00 | 38 | 1008.5 |
| 20260502210112 | 60 | 356 | 4.0 | 10.0 | 0.00 | 0.00 | 0.00 | 40 | 1008.5 |
| 20260502205809 | 59 | 37 | 4.0 | 10.0 | 0.00 | 0.00 | 0.00 | 39 | 1008.5 |
| 20260502205610 | 59 | 10 | 5.0 | 10.0 | 0.00 | 0.00 | 0.00 | 40 | 1008.5 |
| 20260502205306 | 59 | 1 | 2.0 | 8.0 | 0.00 | 0.00 | 0.00 | 41 | 1008.5 |
| 20260502205113 | 59 | 356 | 2.0 | 8.0 | 0.00 | 0.00 | 0.00 | 42 | 1008.5 |
| 20260502204811 | 59 | 18 | 3.0 | 8.0 | 0.00 | 0.00 | 0.00 | 40 | 1008.4 |
| 20260502204611 | 59 | 356 | 4.0 | 6.0 | 0.00 | 0.00 | 0.00 | 39 | 1008.4 |
| 20260502204309 | 59 | 1 | 2.0 | 6.0 | 0.00 | 0.00 | 0.00 | 40 | 1008.4 |
| 20260502204110 | 59 | 346 | 2.0 | 8.0 | 0.00 | 0.00 | 0.00 | 40 | 1008.5 |
| 20260502203814 | 59 | 351 | 1.0 | 8.0 | 0.00 | 0.00 | 0.00 | 40 | 1008.5 |
| 20260502203612 | 59 | 351 | 1.0 | 8.0 | 0.00 | 0.00 | 0.00 | 41 | 1008.5 |
| 20260502203329 | 59 | 360 | 2.0 | 8.0 | 0.00 | 0.00 | 0.00 | 42 | 1008.5 |
| 20260502203115 | 59 | 351 | 1.0 | 9.0 | 0.00 | 0.00 | 0.00 | 42 | 1008.5 |
| 20260502202813 | 59 | 8 | 3.0 | 9.0 | 0.00 | 0.00 | 0.00 | 39 | 1008.5 |
| 20260502202612 | 59 | 341 | 2.0 | 9.0 | 0.00 | 0.00 | 0.00 | 40 | 1008.6 |
| 20260502202310 | 59 | 351 | 5.0 | 9.0 | 0.00 | 0.00 | 0.00 | 40 | 1008.6 |
| 20260502202110 | 59 | 1 | 2.0 | 5.0 | 0.00 | 0.00 | 0.00 | 42 | 1008.6 |
| 20260502201815 | 59 | 351 | 2.0 | 11.0 | 0.00 | 0.00 | 0.00 | 42 | 1008.7 |
| 20260502201615 | 59 | 351 | 1.0 | 11.0 | 0.00 | 0.00 | 0.00 | 41 | 1008.7 |
| 20260502201332 | 60 | 351 | 5.0 | 11.0 | 0.00 | 0.00 | 0.00 | 38 | 1008.7 |
| 20260502201118 | 60 | 6 | 5.0 | 11.0 | 0.00 | 0.00 | 0.00 | 38 | 1008.8 |
| 20260502200754 | 61 | 11 | 2.0 | 9.0 | 0.00 | 0.00 | 0.00 | 41 | 1008.8 |
| 20260502200624 | 60 | 255 | 3.0 | 14.0 | 0.00 | 0.00 | 0.00 | 42 | 1008.9 |
| 20260502200320 | 60 | 16 | 4.0 | 14.0 | 0.00 | 0.00 | 0.00 | 41 | 1008.9 |
| 20260502200059 | 60 | 9 | 3.0 | 14.0 | 0.00 | 0.00 | 0.00 | 42 | 1008.9 |
| 20260502195756 | 60 | 13 | 4.0 | 14.0 | 0.00 | 0.00 | 0.00 | 44 | 1008.8 |
| 20260502195602 | 59 | 250 | 2.0 | 9.0 | 0.00 | 0.00 | 0.00 | 41 | 1008.9 |
| 20260502195320 | 59 | 28 | 1.0 | 9.0 | 0.00 | 0.00 | 0.00 | 43 | 1009.0 |
| 20260502195059 | 59 | 30 | 2.0 | 9.0 | 0.00 | 0.00 | 0.00 | 41 | 1009.0 |
| 20260502194803 | 59 | 23 | 4.0 | 10.0 | 0.00 | 0.00 | 0.00 | 42 | 1009.1 |
| 20260502194603 | 60 | 356 | 5.0 | 11.0 | 0.00 | 0.00 | 0.00 | 40 | 1009.1 |
| 20260502194300 | 60 | 356 | 3.0 | 11.0 | 0.00 | 0.00 | 0.00 | 42 | 1009.1 |
| 20260502194100 | 60 | 13 | 6.0 | 11.0 | 0.00 | 0.00 | 0.00 | 41 | 1009.0 |
| 20260502193757 | 60 | 356 | 2.0 | 9.0 | 0.00 | 0.00 | 0.00 | 43 | 1009.0 |
| 20260502193604 | 61 | 1 | 3.0 | 9.0 | 0.00 | 0.00 | 0.00 | 40 | 1009.1 |
| 20260502193302 | 61 | 4 | 1.0 | 8.0 | 0.00 | 0.00 | 0.00 | 41 | 1009.1 |
| 20260502193102 | 61 | 4 | 1.0 | 8.0 | 0.00 | 0.00 | 0.00 | 43 | 1009.2 |
| 20260502192800 | 61 | 5 | 4.0 | 8.0 | 0.00 | 0.00 | 0.00 | 42 | 1009.2 |
| 20260502192601 | 61 | 356 | 2.0 | 8.0 | 0.00 | 0.00 | 0.00 | 43 | 1009.3 |
| 20260502192305 | 61 | 351 | 1.0 | 8.0 | 0.00 | 0.00 | 0.00 | 43 | 1009.3 |
| 20260502192104 | 60 | 17 | 3.0 | 10.0 | 0.00 | 0.00 | 0.00 | 43 | 1009.4 |
| 20260502191802 | 61 | 356 | 3.0 | 10.0 | 0.00 | 0.00 | 0.00 | 41 | 1009.5 |
| 20260502191602 | 61 | 2 | 5.0 | 10.0 | 0.00 | 0.00 | 0.00 | 39 | 1009.5 |
| 20260502191305 | 61 | 356 | 3.0 | 9.0 | 0.00 | 0.00 | 0.00 | 45 | 1009.6 |
| 20260502191104 | 61 | 4 | 2.0 | 9.0 | 0.00 | 0.00 | 0.00 | 43 | 1009.6 |
| 20260502190802 | 61 | 10 | 3.0 | 9.0 | 0.00 | 0.00 | 0.00 | 41 | 1009.5 |
| 20260502190602 | 60 | 6 | 2.0 | 10.0 | 0.00 | 0.00 | 0.00 | 44 | 1009.5 |
| 20260502190300 | 60 | 4 | 2.0 | 10.0 | 0.00 | 0.00 | 0.00 | 40 | 1009.6 |
| 20260502190101 | 60 | 218 | 3.0 | 10.0 | 0.00 | 0.00 | 0.00 | 40 | 1009.6 |
| 20260502185805 | 60 | 250 | 5.0 | 15.0 | 0.00 | 0.00 | 0.00 | 39 | 1009.6 |
| 20260502185605 | 60 | 246 | 2.0 | 15.0 | 0.00 | 0.00 | 0.00 | 40 | 1009.6 |
| 20260502185305 | 60 | 268 | 4.0 | 15.0 | 0.00 | 0.00 | 0.00 | 42 | 1009.7 |
| 20260502185130 | 60 | 201 | 1.0 | 7.0 | 0.00 | 0.00 | 0.00 | 43 | 1009.7 |
| 20260502184806 | 60 | 93 | 3.0 | 7.0 | 0.00 | 0.00 | 0.00 | 42 | 1009.6 |
| 20260502184606 | 60 | 154 | 4.0 | 10.0 | 0.00 | 0.00 | 0.00 | 40 | 1009.7 |
| 20260502184303 | 60 | 233 | 3.0 | 11.0 | 0.00 | 0.00 | 0.00 | 43 | 1009.7 |
| 20260502184104 | 60 | 232 | 2.0 | 11.0 | 0.00 | 0.00 | 0.00 | 42 | 1009.7 |
| 20260502183808 | 59 | 250 | 7.0 | 11.0 | 0.00 | 0.00 | 0.00 | 41 | 1009.7 |
| 20260502183608 | 59 | 233 | 3.0 | 11.0 | 0.00 | 0.00 | 0.00 | 42 | 1009.7 |
| 20260502183306 | 60 | 242 | 4.0 | 11.0 | 0.00 | 0.00 | 0.00 | 42 | 1009.8 |
| 20260502183106 | 60 | 266 | 5.0 | 11.0 | 0.00 | 0.00 | 0.00 | 41 | 1009.9 |
| 20260502182611 | 60 | 289 | 2.0 | 9.0 | 0.00 | 0.00 | 0.00 | 44 | 1009.9 |
| 20260502182326 | 60 | 289 | 2.0 | 9.0 | 0.00 | 0.00 | 0.00 | 43 | 1009.9 |
| 20260502182116 | 60 | 257 | 3.0 | 9.0 | 0.00 | 0.00 | 0.00 | 43 | 1009.9 |
| 20260502181809 | 60 | 272 | 3.0 | 10.0 | 0.00 | 0.00 | 0.00 | 44 | 1009.9 |
| 20260502181554 | 59 | 351 | 3.0 | 10.0 | 0.00 | 0.00 | 0.00 | 45 | 1010.0 |
| 20260502181308 | 59 | 346 | 4.0 | 10.0 | 0.00 | 0.00 | 0.00 | 43 | 1009.9 |
| 20260502181119 | 59 | 356 | 2.0 | 5.0 | 0.00 | 0.00 | 0.00 | 44 | 1009.9 |